TimeCST,TemperatureF,Dew PointF,Humidity,Sea Level PressureIn,VisibilityMPH,Wind Direction,Wind SpeedMPH,Gust SpeedMPH,PrecipitationIn,Events,Conditions,WindDirDegrees,DateUTC
12:53 AM,10.9,-0.0,61,30.20,10.0,WNW,4.6,-,N/A,,Overcast,300,2013-01-21 06:53:00
1:53 AM,10.9,-0.9,59,30.19,10.0,WNW,4.6,-,N/A,,Overcast,300,2013-01-21 07:53:00
2:53 AM,10.9,-0.9,59,30.18,10.0,WNW,5.8,-,N/A,,Overcast,300,2013-01-21 08:53:00
3:33 AM,10.4,1.4,67,30.12,2.5,WNW,6.9,-,0.00,Snow,Light Snow,290,2013-01-21 09:33:00
3:41 AM,10.4,3.2,73,30.12,4.0,WNW,4.6,-,0.00,Snow,Light Snow,300,2013-01-21 09:41:00
3:53 AM,10.0,3.9,76,30.15,4.0,WNW,4.6,-,0.00,Snow,Light Snow,300,2013-01-21 09:53:00
4:13 AM,10.4,3.2,73,30.10,2.5,West,11.5,16.1,0.00,Snow,Light Snow,270,2013-01-21 10:13:00
4:20 AM,10.4,3.2,73,30.10,4.0,West,6.9,16.1,0.00,Snow,Light Snow,280,2013-01-21 10:20:00
4:53 AM,10.0,1.0,67,30.15,10.0,WNW,12.7,20.7,0.00,,Mostly Cloudy,290,2013-01-21 10:53:00
5:03 AM,8.6,-0.4,67,30.10,10.0,West,16.1,24.2,N/A,,Scattered Clouds,280,2013-01-21 11:03:00
5:53 AM,8.1,-2.9,61,30.16,10.0,WNW,9.2,19.6,N/A,,Partly Cloudy,290,2013-01-21 11:53:00
6:53 AM,5.0,-2.0,73,30.16,10.0,NW,5.8,-,N/A,,Clear,320,2013-01-21 12:53:00
7:53 AM,6.1,-0.9,73,30.17,9.0,West,6.9,-,N/A,,Mostly Cloudy,280,2013-01-21 13:53:00
8:37 AM,6.8,-0.4,72,30.14,6.0,WNW,10.4,-,N/A,,Haze,300,2013-01-21 14:37:00
8:53 AM,6.1,-0.9,73,30.19,7.0,NW,10.4,-,N/A,,Overcast,310,2013-01-21 14:53:00
9:08 AM,6.8,-0.4,72,30.14,1.8,WNW,13.8,19.6,0.00,Snow,Light Snow,300,2013-01-21 15:08:00
9:19 AM,6.8,-0.4,72,30.15,0.8,WNW,13.8,-,0.00,Snow,Light Snow,300,2013-01-21 15:19:00
9:53 AM,5.0,1.0,84,30.21,0.5,NW,18.4,25.3,0.00,Fog-Snow,Light Snow,320,2013-01-21 15:53:00
10:07 AM,5.0,-2.2,72,30.16,2.5,NW,15.0,24.2,0.00,Snow,Light Snow,310,2013-01-21 16:07:00
10:13 AM,5.0,-5.8,61,30.16,9.0,WNW,15.0,24.2,0.00,,Scattered Clouds,300,2013-01-21 16:13:00
10:20 AM,6.8,-4.0,61,30.16,10.0,NW,15.0,-,0.00,,Mostly Cloudy,320,2013-01-21 16:20:00
10:35 AM,6.8,-5.8,56,30.16,10.0,NW,17.3,24.2,0.00,,Partly Cloudy,320,2013-01-21 16:35:00
10:53 AM,5.0,-6.0,61,30.21,10.0,WNW,16.1,25.3,0.00,,Scattered Clouds,290,2013-01-21 16:53:00
11:53 AM,5.0,-9.9,50,30.19,10.0,WNW,20.7,28.8,N/A,,Partly Cloudy,290,2013-01-21 17:53:00
12:53 PM,7.0,-9.9,46,30.18,10.0,WNW,18.4,29.9,N/A,,Clear,290,2013-01-21 18:53:00
1:53 PM,7.0,-9.9,46,30.19,10.0,WNW,16.1,25.3,N/A,,Clear,300,2013-01-21 19:53:00
2:53 PM,5.0,-9.0,52,30.20,10.0,WNW,16.1,23.0,N/A,,Overcast,290,2013-01-21 20:53:00
3:53 PM,5.0,-9.9,50,30.21,10.0,WNW,11.5,27.6,N/A,,Mostly Cloudy,290,2013-01-21 21:53:00
4:53 PM,3.9,-9.9,53,30.22,10.0,WNW,12.7,20.7,N/A,,Clear,290,2013-01-21 22:53:00
5:53 PM,3.9,-9.0,55,30.24,10.0,WNW,9.2,-,N/A,,Scattered Clouds,300,2013-01-21 23:53:00
6:04 PM,3.2,-9.4,56,30.19,10.0,WNW,9.2,-,N/A,,Mostly Cloudy,300,2013-01-22 00:04:00
6:18 PM,3.2,-9.4,56,30.19,10.0,WNW,8.1,-,N/A,,Scattered Clouds,290,2013-01-22 00:18:00
6:53 PM,3.0,-9.9,55,30.25,10.0,NW,8.1,-,N/A,,Clear,310,2013-01-22 00:53:00
7:53 PM,1.9,-9.9,58,30.27,10.0,NW,10.4,-,N/A,,Clear,310,2013-01-22 01:53:00
8:53 PM,1.0,-9.0,63,30.29,10.0,WNW,9.2,-,N/A,,Clear,300,2013-01-22 02:53:00
9:53 PM,1.0,-11.0,57,30.30,10.0,WNW,13.8,-,N/A,,Clear,300,2013-01-22 03:53:00
10:20 PM,-0.4,-11.2,60,30.25,10.0,NW,9.2,20.7,N/A,,Mostly Cloudy,310,2013-01-22 04:20:00
10:53 PM,-0.0,-11.9,57,30.31,10.0,NW,13.8,-,N/A,,Mostly Cloudy,310,2013-01-22 04:53:00
11:53 PM,-0.9,-13.0,57,30.31,10.0,NW,13.8,24.2,N/A,,Clear,310,2013-01-22 05:53:00